Location: Baix
(44.7118°N, 4.7648°E)
Time: 19:24:34
(UTC+00:00)

CENTAUR R/B - Pass Details

Date: 07 August 2020
Orbit: 756 x 1432 km, 63.4° (Epoch: 19 September)

Event Time Altitude Azimuth Distance (km) Brightness Sun altitude
Exits shadow 00:27:28 - 272° (W) 2,889 4.9 -28.2°
Reaches altitude 10° 00:28:08 10° 276° (W) 2,702 4.7 -28.2°
Maximum altitude 00:33:30 27° 333° (NNW) 1,920 4.4 -28.0°
Drops below altitude 10° 00:39:38 10° 29° (NNE) 3,124 6.0 -27.8°
Sets 00:43:09 0° 41° (NE) 4,206 6.8 -27.6°
